Temp
-6 -6 -6 -6 -6 -7 -7 -7 -7 -7 -7 -8 -8 -8 -8 -8 -8 -8 -8 -8 -8 -8 -8 -8 -8 -8 -8 -7 -7 -7 -7 -7 -7 -7 -7 -6 -7 -7 -7 -7 -7 -7 -7
-6 -6 -6 -7 -7 -6 -6 -7 -7 -7 -7 -8 -8 -8 -8 -8 -8 -8 -8 -8 -8 -8 -8 -8 -8 -8 -7 -7 -7 -7 -7 -7 -7 -7 -7 -7 -7 -7 -7 -7 -7 -7 -7
-6 -6 -6 -7 -7 -6 -6 -7 -7 -7 -7 -8 -8 -8 -8 -8 -8 -8 -8 -8 -8 -8 -8 -8 -8 -8 -8 -8 -8 -8 -8 -7 -7 -8 -8 -7 -7 -7 -7 -8 -8 -8 -8
-6 -6 -6 -7 -7 -6 -6 -7 -7 -7 -7 -7 -7 -7 -8 -8 -8 -8 -7 -7 -8 -8 -8 -8 -8 -8 -8 -8 -8 -8 -8 -8 -8 -8 -8 -8 -8 -8 -8 -8 -8 -8 -8
-6 -6 -6 -6 -7 -7 -6 -7 -7 -7 -7 -7 -7 -7 -7 -7 -8 -8 -8 -8 -8 -8 -8 -8 -8 -8 -8 -8 -8 -8 -8 -7 -7 -8 -8 -8 -9 -8 -8 -8 -8 -8 -8
-6 -6 -6 -7 -7 -7 -7 -7 -7 -7 -7 -7 -7 -7 -7 -7 -8 -8 -8 -8 -8 -8 -8 -8 -8 -8 -8 -8 -8 -8 -8 -8 -8 -8 -8 -8 -8 -8 -8 -8 -8 -8 -8
-6 -6 -6 -7 -7 -7 -7 -7 -7 -7 -7 -7 -7 -7 -7 -7 -7 -7 -8 -8 -8 -8 -8 -8 -8 -8 -8 -7 -8 -8 -8 -8 -8 -8 -8 -8 -8 -9 -9 -9 -9 -9 -9
-7 -6 -6 -7 -7 -7 -7 -7 -7 -7 -7 -7 -7 -7 -7 -7 -7 -7 -7 -8 -8 -8 -8 -8 -8 -7 -7 -7 -8 -8 -8 -8 -8 -8 -8 -9 -9 -8 -9 -9 -9 -9 -9
-7 -7 -6 -7 -7 -7 -7 -7 -7 -7 -7 -7 -7 -7 -6 -7 -7 -7 -7 -7 -8 -8 -8 -8 -8 -8 -8 -8 -8 -8 -8 -8 -8 -8 -8 -8 -8 -8 -8 -9 -9 -9 -9
-6 -7 -7 -7 -7 -7 -7 -7 -7 -7 -7 -7 -6 -6 -7 -7 -7 -7 -7 -7 -7 -7 -7 -7 -8 -8 -8 -8 -8 -8 -8 -8 -8 -8 -8 -8 -8 -9 -9 -9 -9 -9 -9
-7 -7 -7 -7 -7 -7 -7 -7 -6 -6 -7 -6 -7 -7 -6 -7 -7 -7 -7 -7 -7 -7 -7 -7 -7 -7 -7 -7 -7 -8 -8 -8 -8 -8 -8 -8 -8 -9 -8 -9 -9 -9 -9
-7 -7 -7 -7 -7 -7 -7 -7 -6 -6 -6 -6 -6 -6 -6 -6 -6 -7 -6 -7 -7 -7 -7 -7 -7 -7 -7 -7 -7 -7 -7 -7 -7 -7 -8 -8 -8 -8 -8 -8 -8 -9 -9
-7 -7 -7 -7 -7 -7 -7 -6 -6 -7 -6 -6 -6 -6 -6 -6 -7 -6 -6 -7 -7 -6 -6 -6 -6 -6 -6 -6 -6 -6 -7 -7 -7 -7 -7 -7 -8 -8 -8 -8 -8 -9 -9
-7 -7 -7 -7 -7 -7 -7 -7 -7 -7 -6 -6 -7 -6 -6 -6 -7 -6 -6 -6 -6 -6 -6 -6 -6 -6 -6 -6 -6 -6 -6 -7 -7 -7 -7 -7 -7 -7 -7 -8 -8 -8 -8
-7 -7 -7 -7 -7 -7 -7 -7 -7 -7 -6 -7 -6 -6 -6 -6 -6 -7 -6 -6 -6 -6 -6 -6 -6 -6 -6 -6 -6 -6 -6 -6 -6 -7 -7 -7 -7 -7 -7 -8 -8 -8 -8
-7 -7 -7 -7 -7 -7 -7 -7 -7 -7 -7 -7 -6 -6 -6 -7 -7 -7 -6 -6 -6 -6 -6 -6 -6 -6 -6 -6 -6 -6 -6 -6 -6 -6 -7 -7 -7 -7 -7 -7 -8 -8 -8
-8 -7 -7 -7 -8 -7 -7 -7 -7 -7 -7 -7 -7 -7 -7 -7 -7 -7 -6 -6 -7 -7 -6 -6 -6 -6 -6 -6 -6 -6 -6 -6 -6 -6 -6 -6 -6 -6 -7 -7 -7 -8 -8
-7 -7 -7 -7 -8 -8 -8 -7 -7 -7 -7 -7 -7 -7 -7 -6 -7 -6 -7 -7 -7 -7 -7 -7 -6 -6 -6 -6 -6 -6 -6 -6 -6 -6 -7 -6 -7 -7 -7 -7 -7 -8 -8
-7 -7 -7 -7 -8 -8 -8 -8 -7 -7 -7 -7 -7 -7 -7 -7 -7 -7 -7 -7 -7 -6 -7 -7 -7 -7 -6 -6 -6 -6 -6 -6 -6 -6 -7 -7 -7 -7 -7 -7 -7 -8 -8
-8 -8 -8 -8 -8 -8 -8 -8 -7 -7 -7 -7 -7 -7 -7 -7 -7 -7 -7 -7 -7 -6 -6 -6 -7 -7 -7 -6 -6 -6 -6 -6 -6 -6 -6 -7 -6 -7 -8 -7 -7 -7 -7
-8 -8 -8 -8 -8 -8 -8 -8 -7 -7 -7 -7 -7 -7 -7 -6 -6 -6 -7 -7 -7 -7 -7 -6 -6 -7 -6 -6 -7 -7 -7 -6 -6 -7 -6 -6 -6 -7 -7 -7 -8 -8 -7
-8 -8 -8 -8 -8 -8 -8 -8 -8 -7 -7 -7 -7 -7 -6 -6 -6 -6 -6 -7 -7 -7 -7 -7 -6 -6 -6 -6 -6 -6 -6 -6 -6 -6 -6 -6 -6 -6 -6 -6 -7 -7 -8
-9 -8 -8 -9 -9 -8 -7 -8 -8 -8 -8 -7 -7 -7 -7 -7 -6 -6 -6 -6 -7 -6 -7 -6 -6 -6 -6 -6 -6 -6 -6 -6 -6 -6 -6 -6 -6 -6 -6 -6 -6 -7 -7
-8 -9 -8 -9 -9 -9 -8 -8 -8 -8 -8 -8 -8 -8 -8 -8 -7 -7 -7 -6 -6 -6 -6 -6 -6 -6 -6 -6 -6 -6 -7 -6 -6 -6 -6 -6 -7 -6 -7 -7 -6 -6 -6
-9 -9 -9 -9 -9 -9 -9 -9 -9 -8 -8 -8 -8 -8 -8 -8 -8 -8 -7 -7 -7 -7 -6 -6 -6 -6 -6 -7 -7 -7 -7 -7 -7 -6 -6 -6 -6 -7 -7 -7 -6 -6 -6
-9 -9 -9 -9 -9 -9 -9 -9 -9 -9 -9 -8 -8 -8 -8 -8 -8 -7 -7 -8 -8 -7 -7 -7 -6 -7 -7 -7 -7 -7 -7 -7 -7 -7 -7 -7 -7 -6 -6 -7 -7 -6 -7
Height
5904 5904 5904 5904 5902 5900 5898 5897 5896 5896 5894 5893 5893 5893 5894 5894 5895 5896 5897 5898 5898 5899 5900 5901 5903 5904 5904 5904 5905 5906 5906 5905 5905 5904 5905 5904 5904 5904 5905 5906 5905 5902 5900
5905 5905 5905 5905 5904 5901 5900 5898 5898 5897 5896 5896 5895 5895 5895 5896 5897 5898 5899 5900 5900 5901 5902 5904 5905 5906 5906 5906 5907 5907 5908 5908 5907 5907 5906 5907 5907 5908 5907 5907 5905 5903 5903
5906 5906 5906 5907 5906 5904 5901 5900 5899 5899 5899 5899 5899 5897 5897 5898 5898 5899 5900 5901 5901 5902 5903 5904 5906 5907 5907 5908 5909 5910 5910 5911 5910 5910 5910 5909 5909 5908 5908 5906 5905 5905 5904
5907 5907 5908 5908 5908 5906 5904 5902 5901 5901 5901 5901 5901 5900 5900 5900 5901 5901 5902 5903 5903 5903 5904 5905 5906 5906 5907 5908 5909 5911 5912 5912 5911 5911 5910 5911 5911 5909 5908 5908 5908 5907 5906
5907 5908 5909 5910 5909 5908 5906 5905 5904 5903 5902 5902 5902 5902 5902 5902 5903 5903 5903 5904 5905 5905 5905 5905 5906 5907 5908 5910 5911 5912 5912 5912 5912 5911 5911 5910 5911 5910 5910 5911 5910 5908 5907
5909 5909 5910 5910 5910 5910 5908 5907 5906 5905 5903 5903 5903 5903 5904 5904 5904 5905 5905 5905 5906 5907 5907 5907 5907 5908 5910 5911 5912 5912 5912 5913 5912 5911 5911 5910 5910 5911 5912 5912 5912 5911 5909
5910 5910 5910 5910 5910 5910 5909 5908 5906 5905 5905 5905 5905 5905 5906 5906 5907 5907 5906 5907 5907 5907 5908 5909 5909 5910 5910 5911 5912 5913 5912 5912 5912 5912 5911 5911 5911 5912 5912 5913 5912 5912 5912
5910 5911 5911 5911 5911 5910 5909 5908 5907 5906 5907 5907 5907 5907 5907 5909 5909 5908 5908 5908 5908 5908 5909 5910 5911 5912 5912 5912 5912 5912 5912 5912 5912 5913 5912 5912 5912 5912 5913 5913 5914 5913 5913
5910 5911 5912 5912 5912 5911 5910 5910 5908 5908 5908 5908 5909 5909 5910 5910 5911 5911 5910 5910 5910 5910 5911 5912 5912 5913 5913 5913 5914 5914 5914 5914 5913 5913 5913 5914 5914 5914 5914 5913 5913 5914 5913
5911 5912 5913 5913 5913 5912 5912 5911 5911 5910 5910 5910 5910 5911 5912 5912 5913 5914 5913 5913 5912 5912 5913 5913 5913 5913 5914 5915 5915 5915 5915 5915 5914 5915 5916 5915 5915 5915 5914 5914 5913 5913 5913
5913 5913 5914 5914 5914 5913 5913 5912 5912 5912 5911 5909 5909 5910 5912 5913 5914 5915 5915 5915 5915 5915 5915 5915 5915 5915 5916 5917 5916 5916 5916 5916 5917 5917 5917 5916 5916 5915 5914 5914 5912 5912 5912
5913 5913 5914 5915 5914 5914 5914 5913 5913 5913 5912 5910 5908 5910 5912 5913 5914 5915 5916 5917 5917 5917 5917 5917 5918 5917 5918 5918 5918 5918 5918 5919 5919 5919 5918 5918 5917 5916 5915 5914 5914 5913 5913
5913 5914 5914 5914 5915 5915 5915 5915 5914 5914 5913 5910 5910 5911 5913 5914 5915 5916 5917 5917 5918 5918 5919 5918 5919 5919 5919 5920 5920 5920 5920 5920 5920 5920 5919 5919 5918 5917 5916 5915 5915 5915 5915
5913 5914 5914 5914 5914 5915 5916 5916 5916 5915 5914 5911 5911 5912 5912 5914 5916 5916 5917 5918 5918 5920 5920 5920 5921 5921 5921 5921 5921 5921 5921 5920 5920 5921 5920 5919 5919 5918 5917 5917 5917 5915 5916
5912 5913 5913 5913 5914 5915 5915 5916 5916 5917 5916 5913 5912 5913 5914 5916 5916 5916 5916 5917 5919 5920 5921 5921 5921 5921 5921 5922 5922 5922 5921 5921 5921 5921 5920 5920 5919 5919 5919 5919 5919 5918 5917
5910 5912 5912 5912 5914 5915 5916 5916 5916 5917 5917 5914 5913 5916 5916 5917 5918 5917 5916 5917 5919 5920 5921 5921 5921 5921 5921 5922 5923 5924 5923 5922 5922 5921 5921 5921 5920 5919 5919 5919 5918 5918 5917
5909 5909 5910 5911 5913 5914 5915 5916 5916 5916 5917 5916 5915 5916 5917 5918 5918 5918 5917 5917 5918 5919 5918 5920 5921 5921 5921 5922 5923 5924 5924 5923 5923 5923 5922 5922 5922 5921 5920 5919 5918 5918 5917
5907 5908 5909 5909 5911 5912 5914 5916 5916 5916 5917 5918 5917 5917 5917 5918 5919 5919 5919 5919 5919 5920 5918 5917 5920 5921 5922 5923 5924 5924 5925 5925 5925 5924 5923 5923 5923 5922 5920 5920 5919 5919 5918
5904 5903 5905 5907 5910 5912 5913 5916 5916 5916 5917 5917 5918 5917 5919 5918 5919 5920 5920 5919 5919 5919 5919 5917 5918 5921 5923 5924 5924 5925 5925 5925 5925 5924 5924 5923 5922 5921 5921 5921 5921 5920 5919
5903 5902 5904 5906 5909 5911 5913 5915 5916 5916 5916 5917 5917 5917 5918 5918 5919 5920 5920 5920 5920 5919 5919 5921 5920 5921 5921 5922 5924 5925 5925 5924 5924 5923 5923 5922 5922 5920 5919 5920 5920 5920 5920
5903 5902 5903 5904 5908 5912 5913 5915 5916 5916 5915 5915 5915 5916 5917 5918 5919 5918 5919 5919 5920 5921 5921 5922 5922 5922 5921 5922 5923 5924 5925 5924 5922 5922 5921 5920 5921 5919 5919 5918 5918 5918 5918
5905 5904 5905 5906 5909 5911 5913 5915 5915 5915 5916 5915 5916 5917 5917 5917 5917 5918 5918 5918 5918 5919 5920 5921 5922 5922 5923 5923 5924 5924 5924 5925 5924 5922 5921 5920 5920 5919 5918 5917 5916 5916 5916
5907 5907 5910 5909 5911 5912 5912 5913 5915 5916 5916 5917 5917 5917 5918 5917 5917 5917 5917 5918 5918 5918 5918 5919 5920 5921 5921 5922 5923 5924 5923 5923 5923 5922 5921 5919 5919 5918 5918 5917 5916 5915 5914
5912 5911 5909 5908 5908 5910 5912 5913 5914 5915 5916 5914 5914 5915 5916 5916 5917 5917 5916 5916 5916 5916 5916 5916 5916 5918 5919 5919 5919 5920 5921 5921 5921 5921 5919 5918 5917 5917 5916 5916 5915 5914 5913
5912 5913 5910 5908 5910 5910 5911 5913 5912 5911 5912 5912 5912 5912 5913 5913 5913 5914 5914 5914 5915 5915 5914 5914 5915 5915 5915 5915 5915 5915 5916 5916 5916 5916 5915 5915 5914 5914 5913 5912 5912 5912 5912
5911 5912 5911 5909 5910 5910 5910 5908 5907 5910 5910 5909 5909 5910 5912 5911 5912 5912 5912 5913 5913 5914 5913 5913 5912 5911 5911 5910 5911 5911 5911 5912 5911 5912 5911 5909 5909 5910 5910 5909 5908 5908 5909
Wind_Speed
10 10 12 12 13 15 15 16 16 16 18 18 18 16 14 12 12 13 13 15 15 14 14 12 12 11 11 10 9 7 6 5 5 5 4 4 4 5 5 5 5 4 4
7 10 11 12 13 15 15 16 15 16 16 17 16 15 14 13 12 12 11 13 14 13 12 12 12 11 11 10 8 8 8 6 6 5 4 5 7 8 6 5 5 5 4
7 11 11 12 13 15 14 15 15 14 15 15 15 15 14 14 12 10 10 11 10 10 10 9 9 9 8 7 8 8 7 6 6 7 6 7 7 7 5 6 6 6 5
7 11 10 12 13 16 16 16 16 15 15 16 16 15 14 13 11 11 10 10 9 9 9 8 8 8 9 8 9 8 7 8 8 9 10 7 5 5 6 5 4 4 4
8 10 10 12 13 16 18 19 17 16 15 14 16 15 13 13 12 10 9 9 8 8 7 7 8 7 8 9 8 7 7 8 9 8 9 8 5 7 7 5 4 4 3
9 10 10 12 13 15 16 18 19 18 16 14 13 14 13 12 12 11 8 7 7 6 7 6 8 8 9 10 8 9 7 5 6 6 6 7 5 4 4 6 6 4 3
7 9 10 11 12 13 13 13 14 15 16 15 13 12 13 12 12 12 11 10 9 8 9 8 8 8 9 9 6 4 2 3 3 4 3 3 4 4 1 2 5 5 3
8 7 9 10 11 12 11 11 10 11 12 13 14 12 11 11 12 11 10 10 11 10 10 9 9 8 6 5 4 3 1 2 3 2 2 2 1 2 2 0 2 4 4
8 6 7 9 10 10 10 11 12 13 11 11 10 13 11 10 12 13 12 12 12 11 10 10 9 8 7 5 5 5 5 3 5 4 3 1 1 1 1 2 3 3 4
8 6 7 8 9 10 9 11 11 11 10 8 7 9 12 10 12 13 15 14 14 13 12 12 11 10 8 7 7 4 2 2 6 6 1 2 2 3 4 4 4 5 5
7 5 7 8 7 9 8 8 8 9 9 11 5 8 8 11 11 13 14 14 13 14 13 13 13 12 10 6 5 5 5 3 3 3 3 3 4 3 4 4 4 4 5
7 6 7 8 7 5 5 5 7 7 9 11 8 10 10 12 12 12 13 13 12 12 12 11 11 11 10 9 8 7 5 4 5 5 4 4 4 5 6 5 4 3 3
6 7 8 9 7 4 3 3 7 7 10 10 7 11 10 12 8 8 7 8 8 9 10 10 10 10 10 10 9 8 8 7 7 8 7 6 5 4 4 3 3 4 4
5 7 8 9 9 6 3 6 7 8 11 13 13 12 11 10 7 5 6 8 8 7 7 9 7 8 7 7 7 9 8 7 6 7 7 7 7 7 7 6 5 5 5
6 8 9 9 9 6 7 7 8 9 13 18 11 14 13 10 8 9 3 4 7 7 6 7 6 6 7 6 5 5 5 6 5 5 6 6 6 5 6 5 6 6 6
6 7 9 10 10 8 7 8 8 10 11 17 21 15 8 8 9 6 8 7 3 2 3 4 4 5 6 6 6 4 3 3 4 6 6 5 4 4 4 4 4 3 4
6 8 10 11 12 12 9 9 8 10 9 12 17 18 15 13 11 9 13 5 6 5 6 1 3 6 5 6 5 4 3 3 3 5 5 5 4 3 4 3 2 2 2
3 6 11 14 16 16 14 11 10 9 10 10 13 12 13 11 12 11 13 16 9 11 10 3 6 7 5 6 7 6 5 4 3 1 3 4 4 2 3 2 2 2 3
1 1 9 16 19 18 15 12 11 10 9 8 9 9 9 10 8 7 8 9 8 8 11 8 11 7 5 7 6 4 2 2 2 2 3 3 5 5 3 1 1 1 1
5 7 9 18 17 18 17 15 11 10 10 9 6 6 5 6 7 5 4 3 4 5 8 9 6 3 1 9 6 4 2 4 2 4 5 3 4 7 3 5 4 4 3
2 4 10 20 17 16 17 16 13 10 9 9 9 7 6 4 4 5 3 2 1 1 2 2 2 3 8 11 4 4 3 3 2 2 4 4 4 6 4 6 8 6 7
2 1 10 12 14 15 15 14 13 12 11 10 10 9 8 8 8 7 6 6 6 6 5 5 4 3 3 4 3 3 2 3 3 4 2 4 1 1 3 6 5 9 8
5 3 3 10 12 13 14 13 13 13 11 10 10 11 11 12 11 10 10 9 9 10 10 10 10 9 8 8 6 5 5 5 7 8 8 7 5 4 5 4 3 4 5
4 11 10 12 11 13 14 14 14 14 14 14 14 15 13 11 12 13 13 13 13 12 13 13 13 11 12 12 11 11 10 10 11 11 11 12 11 9 9 10 9 8 8
6 10 12 13 5 4 3 8 18 18 17 16 15 15 15 14 14 14 15 16 19 19 18 17 17 16 15 15 16 15 16 15 15 15 16 16 16 15 13 13 13 11 11
6 9 11 10 9 8 7 10 8 17 18 17 15 16 15 16 16 15 14 17 19 20 23 21 21 20 19 18 18 19 19 16 15 15 17 18 19 19 19 18 18 17 15
Wind_Direction
98 76 65 63 62 59 60 71 81 83 85 87 93 95 90 86 87 88 87 103 107 106 104 103 109 116 117 117 114 118 129 114 87 85 98 109 124 129 124 124 130 128 113
98 83 70 72 71 61 62 75 85 83 82 84 84 87 92 99 94 91 88 99 109 109 112 113 114 119 118 117 127 140 142 121 115 106 99 103 107 110 108 107 90 87 96
95 85 74 80 77 68 64 73 84 90 88 86 87 88 88 98 105 91 93 106 108 114 116 116 119 123 121 121 115 111 100 99 104 97 90 100 98 95 94 84 80 78 79
99 89 81 87 83 78 72 70 76 83 85 86 84 88 91 91 90 96 99 101 105 106 110 111 112 123 136 128 118 110 106 99 84 85 86 81 85 90 66 52 52 80 90
104 96 86 89 87 83 79 75 73 75 76 76 80 84 88 92 96 97 101 102 102 100 102 102 109 124 135 124 118 111 99 77 78 84 95 97 72 42 28 18 23 43 68
105 103 92 92 92 86 83 83 81 77 76 74 77 80 83 89 93 96 101 105 106 102 93 77 100 123 128 134 121 131 98 67 70 72 88 97 92 77 30 13 11 32 48
98 99 93 92 98 92 83 84 87 84 82 82 79 80 86 89 95 99 106 103 95 103 105 80 87 121 136 136 129 116 111 46 67 81 79 131 155 121 64 26 15 22 51
103 83 89 90 99 100 91 80 83 100 89 86 87 87 90 92 94 95 105 108 103 104 103 99 88 91 124 140 152 149 154 163 159 126 123 137 202 153 207 87 54 39 27
113 104 98 94 97 100 99 89 85 99 89 83 91 94 95 95 87 98 105 112 110 108 105 101 95 84 79 94 97 110 92 131 162 167 169 143 145 189 101 77 49 41 35
119 118 122 105 98 106 102 97 88 83 78 80 91 107 99 99 98 89 95 101 105 101 98 99 98 98 91 81 84 84 59 78 187 177 150 184 100 74 58 48 42 37 23
124 131 140 130 110 117 113 90 70 54 64 55 80 141 115 107 101 99 99 99 101 103 103 106 105 99 86 90 99 101 85 100 129 166 139 131 116 112 83 55 51 32 30
132 153 166 150 137 130 122 80 56 44 40 46 112 129 115 114 103 102 103 98 98 101 106 105 106 103 96 94 87 90 98 84 85 97 98 99 98 97 65 52 44 41 31
138 171 178 163 159 160 110 68 60 52 44 89 125 119 117 111 107 88 101 96 102 95 101 101 97 101 107 101 95 97 95 90 88 80 77 80 72 62 34 43 20 36 36
174 175 179 171 170 173 127 88 72 72 70 86 115 92 130 114 101 83 107 105 94 90 93 94 101 110 105 107 98 104 98 95 90 88 77 71 63 54 55 52 44 39 30
187 175 176 177 176 173 147 111 90 95 98 88 116 120 114 101 79 67 79 128 106 90 86 93 113 120 126 122 108 97 94 96 90 77 72 57 57 44 43 44 47 49 45
219 188 179 185 181 167 158 129 109 107 95 93 104 105 124 105 86 68 62 110 150 96 102 102 116 124 121 115 106 96 97 86 82 79 76 69 54 54 44 30 33 48 47
221 205 193 188 186 186 179 153 128 121 107 93 93 103 103 90 84 84 82 112 92 53 28 97 129 134 132 121 105 103 96 98 93 97 100 81 64 73 76 75 66 55 68
239 215 202 196 192 187 185 177 144 132 127 108 105 101 104 95 83 78 63 87 87 53 39 46 151 124 132 123 114 109 97 95 85 80 6 11 12 70 60 67 77 59 67
68 118 203 194 190 192 186 185 161 147 142 131 120 114 117 111 94 79 77 80 77 56 35 48 143 120 126 134 123 112 81 17 351 313 308 343 327 311 311 337 343 192 104
45 119 173 185 193 194 193 191 184 165 159 150 149 145 145 136 129 117 104 89 81 70 51 59 116 110 272 178 145 149 208 339 224 328 298 293 332 354 314 246 270 283 283
42 144 182 180 184 198 197 194 194 194 187 176 174 181 177 176 173 171 182 195 280 48 74 61 111 46 58 130 160 134 106 93 183 329 337 320 257 353 349 279 247 261 269
12 174 179 182 186 201 206 206 206 211 211 203 204 208 207 211 219 225 226 237 246 260 256 246 232 215 211 190 201 196 207 303 308 306 333 350 46 47 358 11 295 262 270
8 338 288 198 203 213 217 217 223 222 231 244 242 240 246 239 241 248 251 248 254 264 265 263 261 251 241 242 242 242 230 246 275 291 300 302 294 304 321 324 333 303 300
33 4 315 285 201 215 221 221 225 233 233 231 242 249 252 259 267 268 268 266 260 258 261 263 263 262 262 258 253 255 255 257 263 270 278 282 283 280 279 287 292 300 301
278 14 12 56 49 325 234 263 243 228 232 235 238 238 240 242 248 258 263 271 274 270 266 267 268 262 258 260 264 259 254 252 255 262 269 272 275 276 274 276 280 278 286
234 42 41 13 7 2 305 275 253 244 241 239 236 240 240 243 252 256 263 268 278 284 278 275 273 274 266 260 258 261 261 257 252 252 261 265 267 265 272 272 274 276 277